Clayton Lake, ME

1:38 AM EDT on May 30, 2017 (GMT -0400)
Clayton Lake

Weather History for K40B - May, 2013

Change the Weather History Date:

Friday, May 17, 2013

  Actual Average Record
Temperature  
Mean Temperature 46 °F -  
Max Temperature 55 °F 59 °F 75 °F (1999)
Min Temperature 37 °F 34 °F 5 °F (2005)
Degree Days  
Heating Degree Days 19    
Moisture  
Dew Point 36 °F    
Average Humidity 75    
Maximum Humidity 98    
Minimum Humidity 42    
Precipitation  
Precipitation 0.01 in - - ()
Sea Level Pressure  
Sea Level Pressure 30.03 in    
Wind  
Wind Speed 4 mph (NW)    
Max Wind Speed 8 mph    
Max Gust Speed 21 mph    
Averages and records for this station are not official NWS values.
T = Trace of Precipitation, MM = Missing Value Source: NWS Daily Summary

Daily Weather History Graph

Daily Weather History Graph

Search for Another Location

Airport or City:

Trip Planner

Search our weather history database for the weather conditions in past years. The results will help you decide how hot, cold, wet, or windy it might be!

Date:

Astronomy

May. 17, 2013 Rise Set
Actual Time 5:01 AM EDT 8:08 PM EDT
Civil Twilight 4:25 AM EDT 8:44 PM EDT
Nautical Twilight 3:39 AM EDT 9:31 PM EDT
Astronomical Twilight 2:42 AM EDT 10:28 PM EDT
Moon 11:41 AM EDT (5/17) 12:49 AM EDT (5/17)
Length of Visible Light 16h 18m
Length of Day
15h 06m
Waxing Crescent, 45% of the Moon is Illuminated
May 17
Waxing Crescent
May 18
First Quarter
May 25
Full
May 31
Last Quarter
Jun 8
New

Hourly Weather History & Observations

Time (EDT) Temp. Windchill Dew Point Humidity Pressure Visibility Wind Dir Wind Speed Gust Speed Precip Events Conditions
12:25 AM 41.0 °F 39.0 °F 38.1 °F 89% 29.82 in - Variable 3.5 mph - 0.00 in   Unknown
1:25 AM 40.3 °F 35.5 °F 36.3 °F 86% 29.83 in - Variable 6.9 mph - N/A   Unknown
2:25 AM 39.9 °F 37.8 °F 36.3 °F 87% 29.85 in - Variable 3.5 mph - N/A   Unknown
3:25 AM 39.6 °F 37.4 °F 36.9 °F 90% 29.87 in - Variable 3.5 mph 12.7 mph N/A   Unknown
4:25 AM 39.4 °F 37.2 °F 36.5 °F 89% 29.88 in - Variable 3.5 mph - N/A   Unknown
5:25 AM 39.0 °F 36.8 °F 37.2 °F 93% 29.91 in - Variable 3.5 mph - N/A   Unknown
6:25 AM 40.3 °F 38.2 °F 36.0 °F 85% 29.95 in - Variable 3.5 mph - N/A   Unknown
7:25 AM 40.3 °F 38.2 °F 39.4 °F 97% 29.98 in - Variable 3.5 mph - N/A   Unknown
8:25 AM 41.9 °F 39.0 °F 40.1 °F 93% 30.01 in - Variable 4.6 mph - 0.00 in   Unknown
9:25 AM 45.0 °F 42.6 °F 38.7 °F 79% 30.03 in - Variable 4.6 mph 15.0 mph N/A   Unknown
10:25 AM 43.2 °F 39.0 °F 37.9 °F 82% 30.05 in - Variable 6.9 mph 12.7 mph N/A   Unknown
11:25 AM 45.1 °F 42.8 °F 37.8 °F 75% 30.07 in - Variable 4.6 mph 11.5 mph 0.01 in   Unknown
12:25 PM 50.5 °F - 37.0 °F 60% 30.06 in - Variable 5.8 mph 17.3 mph N/A   Unknown
1:25 PM 51.1 °F - 37.6 °F 60% 30.07 in - Variable 4.6 mph 16.1 mph N/A   Unknown
2:25 PM 50.4 °F - 36.7 °F 59% 30.09 in - Variable 5.8 mph 17.3 mph N/A   Unknown
3:25 PM 52.7 °F - 32.7 °F 47% 30.08 in - NW 6.9 mph 18.4 mph N/A   Unknown
4:25 PM 53.8 °F - 30.9 °F 42% 30.09 in - NNW 8.1 mph 20.7 mph N/A   Unknown
5:25 PM 52.3 °F - 31.5 °F 45% 30.11 in - Variable 6.9 mph 13.8 mph N/A   Unknown
6:25 PM 51.4 °F - 31.1 °F 46% 30.13 in - Variable 4.6 mph 12.7 mph N/A   Unknown
7:25 PM 49.6 °F - 32.7 °F 52% 30.14 in - Calm Calm - N/A   Unknown
8:25 PM 44.2 °F - 38.5 °F 80% 30.16 in - Calm Calm - N/A   Unknown
9:25 PM 42.8 °F - 38.7 °F 85% 30.19 in - Calm Calm - 0.00 in   Unknown
10:25 PM 39.2 °F - 36.5 °F 90% 30.21 in - Calm Calm - N/A   Unknown
11:25 PM 37.2 °F - 36.7 °F 98% 30.22 in - Calm Calm - N/A   Unknown